Powrót do katalogu

DELTA 1 DEB

AktywnySSO
NORAD 12206·DEBRIS·🇺🇸 United States

Wystrzelony Mar 5, 1978 z Vandenberg Space Force Base

Loading…

Następne Przeloty (najbliższe 24 godziny)

TLE

ŚwieżeSource: Space-Track

Epoka: Sep 14, 2026, 06:03 UTC

1 12206U 78026AX  26257.25220043  .00001043  00000-0  61339-3 0  9997
2 12206  99.0032  11.1051 0158279 201.1174 158.3410 14.04188944313487

Śledź DELTA 1 DEB w czasie rzeczywistym z AllMySat

Download on the App Store